Time,TemperatureF,DewpointF,PressureIn,WindDirection,WindDirectionDegrees,WindSpeedMPH,WindSpeedGustMPH,Humidity,HourlyPrecipIn,Conditions,Clouds,dailyrainin,SoftwareType,DateUTC
2013-04-06 00:04:00,44.0,22.0,29.99,East,83,1.0,9.0,41,0.00,,,0.00,,2013-04-06 04:04:00,
2013-04-06 00:14:00,44.0,22.0,29.99,East,83,1.0,9.0,41,0.00,,,0.00,,2013-04-06 04:14:00,
2013-04-06 00:23:00,44.0,22.0,29.99,North,9,1.0,6.0,42,0.00,,,0.00,,2013-04-06 04:23:00,
2013-04-06 00:33:00,43.0,22.0,30.00,NNW,330,4.0,9.0,42,0.00,,,0.00,,2013-04-06 04:33:00,
2013-04-06 00:42:00,43.0,22.0,30.00,NNW,330,4.0,9.0,42,0.00,,,0.00,,2013-04-06 04:42:00,
2013-04-06 00:52:00,43.0,22.0,30.00,ESE,109,2.0,12.0,42,0.00,,,0.00,,2013-04-06 04:52:00,
2013-04-06 01:02:00,42.0,21.0,30.00,ENE,77,5.0,7.0,42,0.00,,,0.00,,2013-04-06 05:02:00,
2013-04-06 01:13:00,42.0,21.0,30.00,ENE,77,5.0,7.0,42,0.00,,,0.00,,2013-04-06 05:13:00,
2013-04-06 01:22:00,42.0,21.0,30.00,ENE,77,5.0,7.0,42,0.00,,,0.00,,2013-04-06 05:22:00,
2013-04-06 01:33:00,41.0,18.0,30.02,WSW,257,2.0,12.0,39,0.00,,,0.00,,2013-04-06 05:33:00,
2013-04-06 01:43:00,41.0,18.0,30.02,WSW,257,2.0,12.0,39,0.00,,,0.00,,2013-04-06 05:43:00,
2013-04-06 01:52:00,41.0,19.0,30.03,North,6,2.0,7.0,41,0.00,,,0.00,,2013-04-06 05:52:00,
2013-04-06 02:03:00,41.0,20.0,30.03,NNE,19,1.0,10.0,43,0.00,,,0.00,,2013-04-06 06:03:00,
2013-04-06 02:12:00,41.0,20.0,30.03,NNE,19,1.0,10.0,43,0.00,,,0.00,,2013-04-06 06:12:00,
2013-04-06 02:22:00,40.0,20.0,30.04,WNW,285,1.0,6.0,44,0.00,,,0.00,,2013-04-06 06:22:00,
2013-04-06 02:33:00,40.0,19.0,30.04,North,0,2.0,9.0,43,0.00,,,0.00,,2013-04-06 06:33:00,
2013-04-06 02:42:00,40.0,19.0,30.04,North,0,2.0,9.0,43,0.00,,,0.00,,2013-04-06 06:42:00,
2013-04-06 02:52:00,40.0,19.0,30.05,SSE,160,1.0,5.0,43,0.00,,,0.00,,2013-04-06 06:52:00,
2013-04-06 03:04:00,39.0,18.0,30.06,SSW,213,1.0,3.0,42,0.00,,,0.00,,2013-04-06 07:04:00,
2013-04-06 03:12:00,39.0,18.0,30.06,SSW,213,1.0,3.0,42,0.00,,,0.00,,2013-04-06 07:12:00,
2013-04-06 03:22:00,39.0,18.0,30.06,North,354,0.0,5.0,43,0.00,,,0.00,,2013-04-06 07:22:00,
2013-04-06 03:33:00,39.0,17.0,30.07,North,353,2.0,6.0,41,0.00,,,0.00,,2013-04-06 07:33:00,
2013-04-06 03:52:00,39.0,17.0,30.07,NNE,17,1.0,3.0,41,0.00,,,0.00,,2013-04-06 07:52:00,
2013-04-06 04:02:00,38.0,17.0,30.09,WSW,237,1.0,8.0,42,0.00,,,0.00,,2013-04-06 08:02:00,
2013-04-06 04:13:00,38.0,17.0,30.09,WSW,237,1.0,8.0,42,0.00,,,0.00,,2013-04-06 08:13:00,
2013-04-06 04:22:00,38.0,18.0,30.09,North,3,2.0,6.0,43,0.00,,,0.00,,2013-04-06 08:22:00,
2013-04-06 04:32:00,38.0,19.0,30.10,South,171,1.0,6.0,45,0.00,,,0.00,,2013-04-06 08:32:00,
2013-04-06 04:42:00,38.0,19.0,30.10,South,171,1.0,6.0,45,0.00,,,0.00,,2013-04-06 08:42:00,
2013-04-06 04:52:00,38.0,19.0,30.11,South,176,2.0,3.0,46,0.00,,,0.00,,2013-04-06 08:52:00,
2013-04-06 05:02:00,37.0,19.0,30.11,NNE,19,3.0,6.0,47,0.00,,,0.00,,2013-04-06 09:02:00,
2013-04-06 05:13:00,37.0,19.0,30.11,NNE,19,3.0,6.0,47,0.00,,,0.00,,2013-04-06 09:13:00,
2013-04-06 05:22:00,37.0,19.0,30.12,North,356,1.0,5.0,48,0.00,,,0.00,,2013-04-06 09:22:00,
2013-04-06 05:33:00,37.0,20.0,30.13,WSW,247,1.0,5.0,49,0.00,,,0.00,,2013-04-06 09:33:00,
2013-04-06 05:43:00,37.0,20.0,30.13,WSW,247,1.0,5.0,49,0.00,,,0.00,,2013-04-06 09:43:00,
2013-04-06 05:53:00,37.0,20.0,30.14,ENE,67,1.0,3.0,49,0.00,,,0.00,,2013-04-06 09:53:00,
2013-04-06 06:03:00,37.0,21.0,30.14,NNW,333,2.0,8.0,51,0.00,,,0.00,,2013-04-06 10:03:00,
2013-04-06 06:13:00,37.0,21.0,30.14,NNW,333,2.0,8.0,51,0.00,,,0.00,,2013-04-06 10:13:00,
2013-04-06 06:23:00,36.0,20.0,30.15,NE,53,2.0,6.0,51,0.00,,,0.00,,2013-04-06 10:23:00,
2013-04-06 06:33:00,36.0,20.0,30.16,NNW,340,1.0,5.0,52,0.00,,,0.00,,2013-04-06 10:33:00,
2013-04-06 06:42:00,36.0,20.0,30.16,NNW,340,1.0,5.0,52,0.00,,,0.00,,2013-04-06 10:42:00,
2013-04-06 06:52:00,36.0,20.0,30.16,NNW,340,1.0,5.0,52,0.00,,,0.00,,2013-04-06 10:52:00,
2013-04-06 07:03:00,36.0,21.0,30.18,SSE,160,1.0,6.0,53,0.00,,,0.00,,2013-04-06 11:03:00,
2013-04-06 07:12:00,36.0,21.0,30.18,SSE,160,1.0,6.0,53,0.00,,,0.00,,2013-04-06 11:12:00,
2013-04-06 07:23:00,36.0,21.0,30.19,NW,326,1.0,1.0,54,0.00,,,0.00,,2013-04-06 11:23:00,
2013-04-06 07:33:00,36.0,21.0,30.20,NNE,25,0.0,2.0,53,0.00,,,0.00,,2013-04-06 11:33:00,
2013-04-06 07:43:00,36.0,21.0,30.20,NNE,25,0.0,2.0,53,0.00,,,0.00,,2013-04-06 11:43:00,
2013-04-06 07:52:00,36.0,21.0,30.21,NNE,25,0.0,1.0,54,0.00,,,0.00,,2013-04-06 11:52:00,
2013-04-06 08:02:00,37.0,21.0,30.22,NNE,12,1.0,3.0,53,0.00,,,0.00,,2013-04-06 12:02:00,
2013-04-06 08:13:00,37.0,21.0,30.22,NNE,12,1.0,3.0,53,0.00,,,0.00,,2013-04-06 12:13:00,
2013-04-06 08:22:00,37.0,21.0,30.22,NNE,12,1.0,3.0,53,0.00,,,0.00,,2013-04-06 12:22:00,
2013-04-06 08:33:00,37.0,21.0,30.23,North,350,0.0,3.0,52,0.00,,,0.00,,2013-04-06 12:33:00,
2013-04-06 08:44:00,37.0,21.0,30.23,North,350,0.0,3.0,52,0.00,,,0.00,,2013-04-06 12:44:00,
2013-04-06 08:53:00,38.0,19.0,30.24,North,356,1.0,5.0,46,0.00,,,0.00,,2013-04-06 12:53:00,
2013-04-06 09:03:00,38.0,19.0,30.24,West,261,1.0,5.0,46,0.00,,,0.00,,2013-04-06 13:03:00,
2013-04-06 09:13:00,38.0,19.0,30.24,West,261,1.0,5.0,46,0.00,,,0.00,,2013-04-06 13:13:00,
2013-04-06 09:24:00,38.0,19.0,30.24,West,261,1.0,5.0,46,0.00,,,0.00,,2013-04-06 13:24:00,
2013-04-06 09:32:00,40.0,17.0,30.26,North,1,3.0,8.0,39,0.00,,,0.00,,2013-04-06 13:32:00,
2013-04-06 09:43:00,40.0,17.0,30.26,North,1,3.0,8.0,39,0.00,,,0.00,,2013-04-06 13:43:00,
2013-04-06 09:54:00,40.0,17.0,30.26,North,1,3.0,8.0,39,0.00,,,0.00,,2013-04-06 13:54:00,
2013-04-06 10:05:00,40.0,13.0,30.28,ESE,113,1.0,3.0,33,0.00,,,0.00,,2013-04-06 14:05:00,
2013-04-06 10:12:00,40.0,13.0,30.28,ESE,113,1.0,3.0,33,0.00,,,0.00,,2013-04-06 14:12:00,
2013-04-06 10:23:00,41.0,13.0,30.28,NNW,343,1.0,8.0,31,0.00,,,0.00,,2013-04-06 14:23:00,
2013-04-06 10:33:00,41.0,12.0,30.28,North,6,3.0,7.0,30,0.00,,,0.00,,2013-04-06 14:33:00,
2013-04-06 10:43:00,41.0,12.0,30.28,North,6,3.0,7.0,30,0.00,,,0.00,,2013-04-06 14:43:00,
2013-04-06 10:52:00,41.0,11.0,30.29,SW,218,3.0,10.0,29,0.00,,,0.00,,2013-04-06 14:52:00,
2013-04-06 11:02:00,41.0,10.0,30.29,NNE,28,2.0,6.0,28,0.00,,,0.00,,2013-04-06 15:02:00,
2013-04-06 11:12:00,41.0,10.0,30.29,NNE,28,2.0,6.0,28,0.00,,,0.00,,2013-04-06 15:12:00,
2013-04-06 11:23:00,42.0,12.0,30.29,ESE,108,0.0,5.0,29,0.00,,,0.00,,2013-04-06 15:23:00,
2013-04-06 11:33:00,42.0,12.0,30.29,SW,231,0.0,6.0,29,0.00,,,0.00,,2013-04-06 15:33:00,
2013-04-06 11:43:00,42.0,12.0,30.29,SW,231,0.0,6.0,29,0.00,,,0.00,,2013-04-06 15:43:00,
2013-04-06 11:53:00,43.0,12.0,30.29,NW,310,1.0,3.0,28,0.00,,,0.00,,2013-04-06 15:53:00,
2013-04-06 12:05:00,44.0,12.0,30.29,NNW,331,3.0,5.0,27,0.00,,,0.00,,2013-04-06 16:05:00,
2013-04-06 12:17:00,44.0,12.0,30.29,NNW,331,3.0,5.0,27,0.00,,,0.00,,2013-04-06 16:17:00,
2013-04-06 12:23:00,45.0,13.0,30.29,NNE,20,2.0,5.0,27,0.00,,,0.00,,2013-04-06 16:23:00,
2013-04-06 12:33:00,45.0,13.0,30.29,North,5,4.0,6.0,27,0.00,,,0.00,,2013-04-06 16:33:00,
2013-04-06 12:42:00,45.0,13.0,30.29,North,5,4.0,6.0,27,0.00,,,0.00,,2013-04-06 16:42:00,
2013-04-06 12:53:00,45.0,12.0,30.29,North,353,3.0,7.0,26,0.00,,,0.00,,2013-04-06 16:53:00,
2013-04-06 13:03:00,46.0,14.0,30.29,NW,318,1.0,5.0,27,0.00,,,0.00,,2013-04-06 17:03:00,
2013-04-06 13:13:00,46.0,14.0,30.29,NW,318,1.0,5.0,27,0.00,,,0.00,,2013-04-06 17:13:00,
2013-04-06 13:22:00,46.0,14.0,30.28,NW,312,1.0,3.0,27,0.00,,,0.00,,2013-04-06 17:22:00,
2013-04-06 13:33:00,46.0,14.0,30.28,NW,312,1.0,3.0,27,0.00,,,0.00,,2013-04-06 17:33:00,
2013-04-06 13:43:00,46.0,14.0,30.28,NW,312,1.0,3.0,27,0.00,,,0.00,,2013-04-06 17:43:00,
2013-04-06 13:52:00,47.0,14.0,30.28,West,271,1.0,3.0,26,0.00,,,0.00,,2013-04-06 17:52:00,
2013-04-06 14:03:00,48.0,14.0,30.27,SSW,199,0.0,5.0,25,0.00,,,0.00,,2013-04-06 18:03:00,
2013-04-06 14:13:00,48.0,14.0,30.27,SSW,199,0.0,5.0,25,0.00,,,0.00,,2013-04-06 18:13:00,
2013-04-06 14:23:00,48.0,14.0,30.27,SSW,199,0.0,5.0,25,0.00,,,0.00,,2013-04-06 18:23:00,
2013-04-06 14:32:00,50.0,13.0,30.27,NNE,12,1.0,3.0,22,0.00,,,0.00,,2013-04-06 18:32:00,
2013-04-06 14:42:00,50.0,13.0,30.27,NNE,12,1.0,3.0,22,0.00,,,0.00,,2013-04-06 18:42:00,
2013-04-06 14:52:00,50.0,12.0,30.27,North,354,0.0,3.0,21,0.00,,,0.00,,2013-04-06 18:52:00,
2013-04-06 15:03:00,50.0,12.0,30.27,West,263,0.0,2.0,21,0.00,,,0.00,,2013-04-06 19:03:00,
2013-04-06 15:12:00,50.0,12.0,30.27,West,263,0.0,2.0,21,0.00,,,0.00,,2013-04-06 19:12:00,
2013-04-06 15:23:00,51.0,10.0,30.26,South,179,2.0,3.0,19,0.00,,,0.00,,2013-04-06 19:23:00,
2013-04-06 15:33:00,51.0,11.0,30.26,North,352,2.0,2.0,20,0.00,,,0.00,,2013-04-06 19:33:00,
2013-04-06 15:42:00,51.0,11.0,30.26,North,352,2.0,2.0,20,0.00,,,0.00,,2013-04-06 19:42:00,
2013-04-06 15:53:00,51.0,9.0,30.25,North,4,1.0,3.0,18,0.00,,,0.00,,2013-04-06 19:53:00,
2013-04-06 16:03:00,53.0,11.0,30.25,SW,236,2.0,5.0,18,0.00,,,0.00,,2013-04-06 20:03:00,
2013-04-06 16:13:00,53.0,11.0,30.25,SW,236,2.0,5.0,18,0.00,,,0.00,,2013-04-06 20:13:00,
2013-04-06 16:23:00,52.0,10.0,30.25,North,358,1.0,2.0,18,0.00,,,0.00,,2013-04-06 20:23:00,
2013-04-06 16:32:00,54.0,11.0,30.25,SW,216,3.0,7.0,18,0.00,,,0.00,,2013-04-06 20:32:00,
2013-04-06 16:42:00,54.0,11.0,30.25,SW,216,3.0,7.0,18,0.00,,,0.00,,2013-04-06 20:42:00,
2013-04-06 16:52:00,53.0,9.0,30.25,SSW,211,0.0,6.0,17,0.00,,,0.00,,2013-04-06 20:52:00,
2013-04-06 17:02:00,54.0,10.0,30.26,South,184,1.0,3.0,17,0.00,,,0.00,,2013-04-06 21:02:00,
2013-04-06 17:13:00,53.0,12.0,30.26,South,191,3.0,7.0,19,0.00,,,0.00,,2013-04-06 21:13:00,
2013-04-06 17:22:00,53.0,12.0,30.26,South,191,3.0,7.0,19,0.00,,,0.00,,2013-04-06 21:22:00,
2013-04-06 17:33:00,53.0,12.0,30.26,East,90,2.0,5.0,19,0.00,,,0.00,,2013-04-06 21:33:00,
2013-04-06 17:43:00,53.0,12.0,30.26,East,90,2.0,5.0,19,0.00,,,0.00,,2013-04-06 21:43:00,
2013-04-06 17:52:00,53.0,17.0,30.27,South,175,3.0,5.0,24,0.00,,,0.00,,2013-04-06 21:52:00,
2013-04-06 18:03:00,51.0,21.0,30.27,SE,138,3.0,9.0,30,0.00,,,0.00,,2013-04-06 22:03:00,
2013-04-06 18:13:00,51.0,21.0,30.27,SE,138,3.0,9.0,30,0.00,,,0.00,,2013-04-06 22:13:00,
2013-04-06 18:23:00,50.0,19.0,30.27,SE,131,1.0,7.0,29,0.00,,,0.00,,2013-04-06 22:23:00,
2013-04-06 18:35:00,49.0,24.0,30.28,East,100,4.0,10.0,37,0.00,,,0.00,,2013-04-06 22:35:00,
2013-04-06 18:43:00,49.0,24.0,30.28,East,100,4.0,10.0,37,0.00,,,0.00,,2013-04-06 22:43:00,
2013-04-06 18:53:00,48.0,24.0,30.28,SE,139,5.0,9.0,39,0.00,,,0.00,,2013-04-06 22:53:00,
2013-04-06 19:03:00,47.0,25.0,30.29,SSE,154,2.0,7.0,42,0.00,,,0.00,,2013-04-06 23:03:00,
2013-04-06 19:14:00,47.0,25.0,30.29,SSE,154,2.0,7.0,42,0.00,,,0.00,,2013-04-06 23:14:00,
2013-04-06 19:23:00,47.0,26.0,30.29,SSE,161,3.0,8.0,43,0.00,,,0.00,,2013-04-06 23:23:00,
2013-04-06 19:34:00,46.0,27.0,30.29,ESE,119,2.0,6.0,47,0.00,,,0.00,,2013-04-06 23:34:00,
2013-04-06 19:43:00,46.0,27.0,30.29,ESE,119,2.0,6.0,47,0.00,,,0.00,,2013-04-06 23:43:00,
2013-04-06 19:53:00,46.0,28.0,30.29,East,84,2.0,6.0,49,0.00,,,0.00,,2013-04-06 23:53:00,
2013-04-06 20:02:00,45.0,29.0,30.29,ESE,103,5.0,6.0,53,0.00,,,0.00,,2013-04-07 00:02:00,
2013-04-06 20:13:00,45.0,29.0,30.29,ESE,103,5.0,6.0,53,0.00,,,0.00,,2013-04-07 00:13:00,
2013-04-06 20:22:00,44.0,28.0,30.30,ESE,111,2.0,7.0,54,0.00,,,0.00,,2013-04-07 00:22:00,
2013-04-06 20:33:00,44.0,29.0,30.30,ESE,123,1.0,8.0,55,0.00,,,0.00,,2013-04-07 00:33:00,
2013-04-06 20:43:00,44.0,29.0,30.30,ESE,123,1.0,8.0,55,0.00,,,0.00,,2013-04-07 00:43:00,
2013-04-06 20:52:00,44.0,29.0,30.30,South,179,1.0,5.0,56,0.00,,,0.00,,2013-04-07 00:52:00,
2013-04-06 21:03:00,43.0,30.0,30.31,NE,46,1.0,3.0,59,0.00,,,0.00,,2013-04-07 01:03:00,
2013-04-06 21:12:00,43.0,30.0,30.31,NE,46,1.0,3.0,59,0.00,,,0.00,,2013-04-07 01:12:00,
2013-04-06 21:23:00,43.0,30.0,30.31,ESE,120,3.0,7.0,60,0.00,,,0.00,,2013-04-07 01:23:00,
2013-04-06 21:33:00,43.0,31.0,30.31,SSE,147,1.0,6.0,62,0.00,,,0.00,,2013-04-07 01:33:00,
2013-04-06 21:43:00,43.0,31.0,30.31,SSE,147,1.0,6.0,62,0.00,,,0.00,,2013-04-07 01:43:00,
2013-04-06 21:52:00,43.0,31.0,30.31,ESE,105,1.0,5.0,63,0.00,,,0.00,,2013-04-07 01:52:00,
2013-04-06 22:03:00,42.0,31.0,30.31,ESE,110,3.0,7.0,65,0.00,,,0.00,,2013-04-07 02:03:00,
2013-04-06 22:12:00,42.0,31.0,30.31,ESE,110,3.0,7.0,65,0.00,,,0.00,,2013-04-07 02:12:00,
2013-04-06 22:23:00,42.0,31.0,30.31,ESE,112,1.0,6.0,65,0.00,,,0.00,,2013-04-07 02:23:00,
2013-04-06 22:33:00,42.0,31.0,30.32,East,89,2.0,6.0,65,0.00,,,0.00,,2013-04-07 02:33:00,
2013-04-06 22:43:00,42.0,31.0,30.32,East,89,2.0,6.0,65,0.00,,,0.00,,2013-04-07 02:43:00,
2013-04-06 22:52:00,42.0,31.0,30.32,ESE,119,2.0,7.0,65,0.00,,,0.00,,2013-04-07 02:52:00,
2013-04-06 23:03:00,42.0,31.0,30.32,ESE,103,2.0,5.0,66,0.00,,,0.00,,2013-04-07 03:03:00,
2013-04-06 23:13:00,42.0,31.0,30.32,ESE,103,2.0,5.0,66,0.00,,,0.00,,2013-04-07 03:13:00,
2013-04-06 23:22:00,42.0,32.0,30.32,ESE,104,2.0,5.0,67,0.00,,,0.00,,2013-04-07 03:22:00,
2013-04-06 23:35:00,42.0,32.0,30.32,ESE,108,1.0,5.0,67,0.00,,,0.00,,2013-04-07 03:35:00,
2013-04-06 23:44:00,42.0,32.0,30.32,ESE,108,1.0,5.0,67,0.00,,,0.00,,2013-04-07 03:44:00,
2013-04-06 23:53:00,42.0,31.0,30.31,East,85,1.0,3.0,65,0.00,,,0.00,,2013-04-07 03:53:00,